Location: Ay?beleni
(36.6500°N, 30.3000°E)
Time: 13:30:08
(UTC+00:00)

Nadezhda 1 Rocket - Visible Passes

Search period start: 06 August 2020 00:00
Search period end: 16 August 2020 00:00
Orbit: 942 x 1005 km, 83.0° (Epoch: 05 August)

Date Brightness Start Highest point End Pass type
(mag) Time Alt. Az. Time Alt. Az. Time Alt. Az.
07 Aug 7.3 02:10:47 10° E 02:12:18 11° E 02:13:48 10° ENE visible
08 Aug 6.7 02:31:53 10° SE 02:36:34 22° E 02:41:15 10° NE visible
11 Aug 6.7 02:01:39 10° ESE 02:05:41 18° E 02:09:42 10° NE visible
12 Aug 5.9 02:24:29 10° SSE 02:30:03 33° E 02:35:38 10° NNE visible
14 Aug 6.8 01:31:41 10° ESE 01:34:48 14° E 01:37:55 10° NE visible
15 Aug 6.2 01:53:57 10° SE 01:59:08 27° E 02:04:18 10° NNE visible
